Other Public Products
Issued by NWS Grand Forks, ND

Home | Current Version | Previous Version | Text Only | Print | Product List | Glossary On
Versions: 1 2 3 4 5 6 7 8 9 10 11 12 13 14 15 16 17 18 19 20 21 22 23 24 25 26 27 28 29 30 31 32 33 34 35 36 37 38 39 40 41 42 43 44 45 46 47 48 49 50
000
FPUS83 KFGF 200431
OPUFGF
PRAIRIE TO PINES WEATHER ROUNDUP
NATIONAL WEATHER SERVICE EASTERN NORTH DAKOTA/GRAND FORKS ND
1100 PM CDT TUE SEP 19 2017

 **SATELLITE DATA USED TO AUGMENT SKY COVER AT AUTOMATED STATIONS**
 *****  WEATHER ACROSS EASTERN NORTH DAKOTA  *****

CITY           SKY/WX    TMP DP  RH WIND       PRES   REMARKS
GRAND FORKS    LGT RAIN  66  65  96 E20G28    29.36F
GRAND FORKS AF LGT RAIN  64  64 100 W8        29.45R
GRAND CITY NWS NOT AVBL
BUXTON           N/A     65  64  99 E8          N/A
DEVILS LAKE    CLOUDY    59  56  89 W7        29.49R
FARGO          LGT RAIN  63  62  97 NE9       29.44F
WAHPETON ARPT  CLOUDY    63  61  94 SW3       29.44S VSB<1/4
$$

 *****  WEATHER ACROSS CENTRAL AND WESTERN NORTH DAKOTA  *****

CITY           SKY/WX    TMP DP  RH WIND       PRES   REMARKS
JAMESTOWN      CLOUDY    60  55  83 W12       29.52R
BISMARCK       FAIR      56  32  40 NW15G24   29.56S
MINOT          CLOUDY    56  46  69 W18       29.51R
MINOT AFB      CLOUDY    55  46  71 W12       29.49R
GARRISON         N/A     52  45  77 W12       29.53R
WILLISTON      CLOUDY    54  42  64 W12       29.57R
DICKINSON      FAIR      46  43  89 W12       29.61R
HETTINGER      FAIR      44  42  93 W13       29.67S
$$

 *****  OTHER OBSERVATIONS NORTHEAST NORTH DAKOTA  *****

CITY           SKY/WX    TMP DP  RH WIND       PRES   REMARKS
WALHALLA       FAIR     N/A N/A N/A CALM      29.41F
LANGDON        CLOUDY    59  59 100 W7        29.44F
CAVALIER       LGT RAIN  64  64 100 CALM      29.40F
GRAFTON        FAIR      64  61  88 SE12G21   29.43R
CANDO          CLOUDY    57  57 100 W7        29.49R
FORT TOTTEN      N/A     58  57  95 NW5       29.95S
ROLLA          CLOUDY    55  55 100 W6        29.47F
RUGBY          CLOUDY    57  55  94 W6        29.48F
 ***** THE ABOVE OBSERVATIONS ARE NON NWS ARE NOT QUALITY
        CONTROLLED AND MAY MIS-REPORT RAIN FOR SNOW...
$$

 *****  OTHER OBSERVATIONS SOUTHEAST NORTH DAKOTA *****

CITY           SKY/WX    TMP DP  RH WIND       PRES   REMARKS
COOPERSTOWN    CLOUDY    61  57  88 W16G24    29.49R
VALLEY CITY    CLOUDY    61  61 100 NW17G25   29.50R
OAKES          NOT AVBL
GWINNER        CLOUDY    64  64 100 W8        29.50R
BUFFALO          N/A     60  57  92 CALM        N/A
WYNDMERE       NOT AVBL
 ***** THE ABOVE OBSERVATIONS ARE NON NWS ARE NOT QUALITY
       CONTROLLED AND MAY MIS-REPORT RAIN FOR SNOW...
$$

  *****  WEATHER ACROSS NORTHERN MINNESOTA  *****

CITY           SKY/WX    TMP DP  RH WIND       PRES   REMARKS
FLAG ISLAND    TSTM      63  61  94 SE7G17    29.56F
WARROAD        RAIN      64  61  88 E17G24    29.50F
ROSEAU         LGT RAIN  64  59  82 NE7       29.50F
HALLOCK        CLOUDY    64  63  94 SE22G32   29.40S
THF RVR FALLS  RAIN      61  60  97 S3        29.50R
HALSTAD          N/A     63  63  99 E8          N/A
FOSSTON        TSTM      61  57  88 W25G33    29.50R
BAUDETTE       RAIN      63  60  90 SE16G28   29.56F
WASKISH        LGT RAIN  64  61  88 E18G24    29.54F
CROOKSTON      RAIN      61  61 100 SE14      29.47R
$$
  *****  WEATHER ACROSS CENTRAL AND WEST MINNESOTA  *****

CITY           SKY/WX    TMP DP  RH WIND       PRES   REMARKS
BEMIDJI        CLOUDY    64  62  91 SE18G29   29.50F
PARK RAPIDS    LGT RAIN  70  63  78 SE28G38   29.49F
WADENA         CLOUDY    70  63  78 SE18G28   29.49F
DETROIT LAKES  MOCLDY    68  63  83 W21G33    29.53R
MOORHEAD       CLOUDY    63  61  94 NE16      29.45F
FERGUS FALLS   CLOUDY    75  64  69 S33G44    29.38F
ELBOW LAKE     MOCLDY    71  66  82 SE26G37   29.43F
MORRIS MN      FAIR      73  66  78 SE30G36   29.42F
STAPLES        MOCLDY    70  61  73 SE14G26   29.54S
WHEATON        TSTM      64  61  88 S22G37    29.46R
$$
  *****  WEATHER ELSEWHERE ACROSS MINNESOTA  *****

CITY           SKY/WX    TMP DP  RH WIND       PRES   REMARKS
DULUTH         FAIR      61  58  90 E15       29.76R
INTRNTL FALLS  FAIR      62  55  77 SE12      29.67F
ELY            FAIR      61  54  77 SE10      29.77S
CLOQUET        FAIR      61  55  82 E6        29.72S
BRAINERD       CLOUDY    70  61  73 SE15G24   29.59F
HIBBING        CLOUDY    63  56  78 SE15      29.71S
ALEXANDRIA     MOCLDY    72  64  76 SE23G31   29.51F
SAINT CLOUD    MOCLDY    72  63  73 SE18G29   29.60F
MINNEAPOLIS    MOCLDY    72  64  76 SE14      29.67R
$$

  *****  WEATHER ACROSS SOUTH DAKOTA  *****

CITY           SKY/WX    TMP DP  RH WIND       PRES   REMARKS
SIOUX FALLS    CLOUDY    78  69  73 S28G37    29.43F THUNDER
BROOKINGS      TSTM      66  63  88 W26G40    29.58R
WATERTOWN      TSTM      64  63  96 NW24G36   29.48S
HURON          MOCLDY    65  54  67 N15       29.55R
SISSETON         N/A     69  66  90 SW8       29.40S
ABERDEEN       MOCLDY    63  55  75 NW16G28   29.53R
MITCHELL       MOCLDY    62  58  86 NW7       29.59F
PIERRE         FAIR      57  50  77 NW25      29.57S
MOBRIDGE       LGT RAIN  55  52  89 W18G24    29.56F
RAPID CITY     CLEAR     45  41  87 NW8       29.73S
$$

  *****  SOME WEATHER IN NEARBY STATES *****

CITY           SKY/WX    TMP DP  RH WIND       PRES   REMARKS
GLASGOW MT     FAIR      47  34  60 SW8       29.58S
GREAT FALLS MT FAIR      44  30  57 SW20G30   29.65F
CHEYENNE WY    FAIR      43  32  65 NW32G46   29.86S
SCOTTSBLUFF NE FAIR      52  36  54 NW9       29.79R
OMAHA NE       MOCLDY    80  67  64 SE23G33   29.61S
DES MOINES IA  FAIR      75  67  76 SE13      29.72S
DAVENPORT IA   FAIR      68  64  87 SE7       29.88S
CHICAGO IL     FAIR      68  62  81 E6        29.93S
EAU CLAIRE WI  FAIR      68  57  68 SE15      29.77F
LA CROSSE WI   FAIR      73  64  73 SE10      29.80F
$$

  *****  SOME NATIONAL WEATHER *****

CITY           SKY/WX    TMP DP  RH WIND       PRES   REMARKS
LA GUARDIA NY  CLOUDY    72  66  81 N12       29.85F
RALEIGH NC     FAIR      67  64  90 E3        29.97R
ATLANTA GA     FAIR      76  68  76 CALM      30.00R
NEW ORLEANS LA MOCLDY    79  74  84 SW6       29.97R
OKLAHOMA CITY  FAIR      79  69  71 S13       29.76F
ALBUQUERQUE NM FAIR      74  26  16 W12       29.97R
SALT LAKE CITY FAIR      54  36  50 SW5       29.92R
LOS ANGELES CA FAIR      67  63  87 W9        29.88R
BOISE ID       MOCLDY    51  40  65 SE8       29.88S
SEATTLE WA     CLOUDY    54  49  83 N3        29.76S
$$

*** WEATHER ACROSS MANITOBA...SASKATCHEWAN AND ONTARIO ***
                ***ONTARIO***

CITY           SKY/WX    TMP DP  RH WIND       PRES   REMARKS
GERALDTON      CLEAR     48  46  93 E2        29.98F
THUNDER BAY    MOCLDY    57  55  94 E7        29.89F
SIOUX LOOKOUT  CLOUDY    57  50  77 SE7       29.78F
TORONTO        MOCLDY    70  64  83 NE6       30.00S
BIG TROUT LK   CLEAR     46  39  76 E6        29.95F
PICKLE LAKE    NOT AVBL
DRYDEN         CLOUDY    61  54  77 SE14G20   29.72F
KENORA         LGT RAIN  63  59  88 SE12G26   29.63F
$$
                *** MANITOBA***

CITY           SKY/WX    TMP DP  RH WIND       PRES   REMARKS
BRANDON        CLOUDY    55  54  94 W8        29.43R
DAUPHIN        CLOUDY    57  55  94 W7        29.38S
ISLAND LAKE    NOT AVBL
PILOT MOUND      N/A     57  55  94 W5          N/A
THE PAS        LGT RAIN  54  52  94 E16G28    29.40F
THOMPSON       CLOUDY    52  39  62 E12G20    29.78F
WINNIPEG       LGT RAIN  64  61  88 W6        29.47R
LYNN LAKE      CLOUDY    52  37  58 E15G26    29.74F
CHURCHILL      MOCLDY    39  37  93 E9        30.08R
GILLAM         CLOUDY    46  39  76 E7        29.93F
$$
                ***SASKATCHEWAN***

CITY           SKY/WX    TMP DP  RH WIND       PRES   REMARKS
ESTEVAN        LGT RAIN  52  45  76 W12       29.51S
KINDERSLEY     CLEAR     41  36  81 NE3       29.49F
LLOYDMINSTER   MOCLDY    39  36  87 W8        29.44F
PRINCE ALBERT  LGT RAIN  48  48 100 W16G25    29.34R FOG
REGINA         CLOUDY    48  43  81 W8        29.49S
YORKTON        CLOUDY    50  46  87 W12       29.40F
N. BATTLEFORD  PTCLDY    41  37  87 W8        29.48S



USA.gov is the U.S. government's official web portal to all federal, state and local government web resources and services.